User: anonymous   Login
Location: Unspecified
(0.0000°N, 0.0000°E)
Time: 02:23:10
(UTC+02:00)
Language:

CZ-4B DEB - Orbit

View from above orbital plane
View from above orbital plane
View from above satellite
View from above satellite

Ground track
Ground track

The orbit data is extracted from the following two-line orbital elements,

1 33411U 08053D   16146.81474799  .00015873  00000-0  37520-3 0  9999
2 33411  97.4523 176.8681 0003287 277.8380  82.2493 15.41912006416329
Epoch (UTC): 25 May 2016 19:33:14
Eccentricity: 0.0003287
inclination: 97.4523°
perigee height: 438 km
apogee height: 443 km
right ascension of ascending node: 176.8681°
argument of perigee: 277.8380°
revolutions per day: 15.41912006
mean anomaly at epoch: 82.2493°
orbit number at epoch: 41632

The dashed part of the orbit path shows where the satellite is in the earth's shadow,  

DLR